Weather History for Jackson, MN

Change the Weather History Date:

Friday, November 22, 2013

  Actual Average Record
Temperature  
Mean Temperature 19 °F -  
Max Temperature 32 °F 36 °F 59 °F (1998)
Min Temperature 6 °F 21 °F 6 °F (2013)
Degree Days  
Heating Degree Days 46    
Moisture  
Dew Point 7 °F    
Average Humidity 58    
Maximum Humidity 79    
Minimum Humidity 30    
Precipitation  
Precipitation 0.00 in - - ()
Sea Level Pressure  
Sea Level Pressure 30.55 in    
Wind  
Wind Speed 13 mph (WNW)    
Max Wind Speed 23 mph    
Max Gust Speed 32 mph    
Visibility 10 miles    
Events      
Averages and records for this station are not official NWS values.
T = Trace of Precipitation, MM = Missing Value Source: NWS Daily Summary

Daily Weather History Graph

Daily Weather History Graph

Search for Another Location

Airport:

Trip Planner

Search our weather history database for the weather conditions in past years. The results will help you decide how hot, cold, wet, or windy it might be!

Date:

Astronomy

Nov. 22, 2013 Rise Set
Actual Time 7:23 AM CST 4:48 PM CST
Civil Twilight 6:51 AM CST 5:20 PM CST
Nautical Twilight 6:16 AM CST 5:55 PM CST
Astronomical Twilight 5:42 AM CST 6:29 PM CST
Moon 9:24 PM CST (11/22) 11:05 AM CST (11/22)
Length of Visible Light 10h 28m
Length of Day
9h 25m
Waning Gibbous, 78% of the Moon is Illuminated
Nov 22
Waning Gibbous
Nov 25
Last Quarter
Dec 2
New
Dec 9
First Quarter
Dec 17
Full

Hourly Weather History & Observations

Time (CST) Temp. Windchill Dew Point Humidity Pressure Visibility Wind Dir Wind Speed Gust Speed Precip Events Conditions
12:13 AM 17.6 °F 2.2 °F 10.4 °F 73% 30.53 in 10.0 mi NNW 17.3 mph 24.2 mph N/A   Overcast
12:33 AM 17.6 °F 3.2 °F 10.4 °F 73% 30.53 in 10.0 mi NNW 15.0 mph 23.0 mph N/A   Mostly Cloudy
12:53 AM 17.6 °F 3.2 °F 10.4 °F 73% 30.54 in 10.0 mi NNW 15.0 mph 21.9 mph N/A   Clear
1:13 AM 17.6 °F 2.7 °F 10.4 °F 73% 30.54 in 10.0 mi NNW 16.1 mph 23.0 mph N/A   Scattered Clouds
1:33 AM 17.6 °F 3.2 °F 10.4 °F 73% 30.53 in 10.0 mi NNW 15.0 mph 21.9 mph N/A   Scattered Clouds
1:53 AM 17.6 °F 3.2 °F 8.6 °F 68% 30.54 in 10.0 mi NNW 15.0 mph 20.7 mph N/A   Clear
2:13 AM 15.8 °F 1.4 °F 8.6 °F 73% 30.54 in 10.0 mi NNW 13.8 mph 21.9 mph N/A   Mostly Cloudy
2:33 AM 15.8 °F 2.7 °F 8.6 °F 73% 30.54 in 10.0 mi NNW 11.5 mph 20.7 mph N/A   Scattered Clouds
2:53 AM 14.0 °F 0.5 °F 8.6 °F 79% 30.54 in 10.0 mi NW 11.5 mph - N/A   Clear
3:13 AM 14.0 °F 0.5 °F 6.8 °F 73% 30.55 in 10.0 mi NW 11.5 mph - N/A   Clear
3:33 AM 14.0 °F -0.8 °F 6.8 °F 73% 30.54 in 10.0 mi NW 13.8 mph - N/A   Clear
3:53 AM 12.2 °F -0.2 °F 6.8 °F 79% 30.54 in 10.0 mi NW 9.2 mph - N/A   Clear
4:13 AM 12.2 °F -1.0 °F 5.0 °F 73% 30.54 in 10.0 mi NW 10.4 mph - N/A   Clear
4:33 AM 10.4 °F -1.5 °F 5.0 °F 79% 30.53 in 10.0 mi NW 8.1 mph - N/A   Clear
4:53 AM 10.4 °F -1.5 °F 5.0 °F 79% 30.54 in 10.0 mi NW 8.1 mph - N/A   Clear
5:13 AM 10.4 °F -1.5 °F 3.2 °F 73% 30.54 in 10.0 mi WNW 8.1 mph - N/A   Clear
5:33 AM 10.4 °F -0.4 °F 3.2 °F 73% 30.55 in 10.0 mi WNW 6.9 mph - N/A   Clear
5:54 AM 8.6 °F -3.7 °F 1.4 °F 73% 30.55 in 10.0 mi WNW 8.1 mph - N/A   Clear
6:13 AM 10.4 °F -2.4 °F 1.4 °F 67% 30.56 in 10.0 mi NW 9.2 mph - N/A   Clear
6:33 AM 8.6 °F -3.7 °F 1.4 °F 73% 30.56 in 10.0 mi NW 8.1 mph - N/A   Clear
6:54 AM 8.6 °F -1.3 °F 1.4 °F 73% 30.55 in 10.0 mi NW 5.8 mph - N/A   Scattered Clouds
7:13 AM 8.6 °F 2.0 °F -0.4 °F 67% 30.54 in 10.0 mi West 3.5 mph - N/A   Clear
7:33 AM 6.8 °F -4.8 °F -0.4 °F 72% 30.54 in 10.0 mi WNW 6.9 mph - N/A   Clear
7:54 AM 10.4 °F -2.4 °F 1.4 °F 67% 30.56 in 10.0 mi NW 9.2 mph - N/A   Clear
8:13 AM 12.2 °F -1.8 °F 3.2 °F 67% 30.57 in 10.0 mi WNW 11.5 mph - N/A   Clear
8:33 AM 14.0 °F -1.4 °F 3.2 °F 62% 30.58 in 10.0 mi WNW 15.0 mph 21.9 mph N/A   Clear
8:53 AM 14.0 °F 0.5 °F 3.2 °F 62% 30.58 in 10.0 mi WNW 11.5 mph - N/A   Clear
9:13 AM 17.6 °F 6.4 °F 3.2 °F 53% 30.58 in 10.0 mi WNW 9.2 mph - N/A   Clear
9:33 AM 19.4 °F 9.5 °F 1.4 °F 46% 30.58 in 10.0 mi NW 8.1 mph - N/A   Clear
9:53 AM 21.2 °F 10.1 °F 3.2 °F 46% 30.58 in 10.0 mi West 10.4 mph - N/A   Clear
10:13 AM 21.2 °F 10.1 °F 5.0 °F 50% 30.59 in 10.0 mi West 10.4 mph - N/A   Clear
10:33 AM 23.0 °F 14.7 °F 5.0 °F 46% 30.59 in 10.0 mi West 6.9 mph - N/A   Clear
10:53 AM 24.8 °F 16.9 °F 5.0 °F 43% 30.58 in 10.0 mi West 6.9 mph - N/A   Clear
11:13 AM 26.6 °F 16.8 °F 1.4 °F 34% 30.57 in 10.0 mi West 10.4 mph - N/A   Clear
11:33 AM 28.4 °F 19.7 °F 3.2 °F 34% 30.56 in 10.0 mi West 9.2 mph - N/A   Clear
11:53 AM 30.2 °F 20.8 °F 5.0 °F 34% 30.55 in 10.0 mi West 11.5 mph - N/A   Clear
12:13 PM 30.2 °F 21.3 °F 8.6 °F 40% 30.54 in 10.0 mi West 10.4 mph - N/A   Clear
12:33 PM 32.0 °F 23.0 °F 8.6 °F 38% 30.55 in 10.0 mi WSW 11.5 mph - N/A   Clear
12:53 PM 32.0 °F 21.6 °F 5.0 °F 32% 30.54 in 10.0 mi WSW 15.0 mph - N/A   Clear
1:13 PM 32.0 °F 21.2 °F 3.2 °F 30% 30.53 in 10.0 mi WSW 16.1 mph - N/A   Clear
1:33 PM 32.0 °F 20.8 °F 5.0 °F 32% 30.52 in 10.0 mi SW 17.3 mph - N/A   Clear
1:53 PM 32.0 °F 21.2 °F 8.6 °F 38% 30.51 in 10.0 mi SW 16.1 mph - N/A   Clear
2:13 PM 32.0 °F 20.8 °F 8.6 °F 38% 30.50 in 10.0 mi WSW 17.3 mph 21.9 mph N/A   Clear
2:33 PM 32.0 °F 20.8 °F 8.6 °F 38% 30.49 in 10.0 mi WSW 17.3 mph 21.9 mph N/A   Clear
2:53 PM 32.0 °F 20.5 °F 8.6 °F 38% 30.49 in 10.0 mi SW 18.4 mph - N/A   Clear
3:13 PM 32.0 °F 20.8 °F 5.0 °F 32% 30.48 in 10.0 mi WSW 17.3 mph 24.2 mph N/A   Clear
3:33 PM 32.0 °F 20.8 °F 5.0 °F 32% 30.49 in 10.0 mi West 17.3 mph 24.2 mph N/A   Clear
3:53 PM 32.0 °F 21.6 °F 8.6 °F 38% 30.49 in 10.0 mi WSW 15.0 mph - N/A   Clear
4:13 PM 32.0 °F 23.0 °F 8.6 °F 38% 30.49 in 10.0 mi WSW 11.5 mph - N/A   Clear
4:33 PM 30.2 °F 21.3 °F 6.8 °F 37% 30.49 in 10.0 mi WSW 10.4 mph - N/A   Clear
4:53 PM 28.4 °F 20.4 °F 8.6 °F 43% 30.49 in 10.0 mi WSW 8.1 mph - N/A   Clear
5:13 PM 26.6 °F 19.1 °F 8.6 °F 47% 30.50 in 10.0 mi West 6.9 mph - N/A   Clear
5:33 PM 24.8 °F 17.9 °F 8.6 °F 50% 30.51 in 10.0 mi NW 5.8 mph - N/A   Clear
5:53 PM 23.0 °F 13.9 °F 8.6 °F 54% 30.52 in 10.0 mi West 8.1 mph - N/A   Clear
6:13 PM 24.8 °F 15.3 °F 8.6 °F 50% 30.51 in 10.0 mi WSW 9.2 mph - N/A   Clear
6:33 PM 24.8 °F 14.6 °F 8.6 °F 50% 30.51 in 10.0 mi West 10.4 mph - N/A   Clear
6:53 PM 24.8 °F 12.9 °F 8.6 °F 50% 30.52 in 10.0 mi NW 13.8 mph 18.4 mph N/A   Clear
7:13 PM 23.0 °F 11.7 °F 10.4 °F 59% 30.54 in 10.0 mi NW 11.5 mph - N/A   Clear
7:33 PM 23.0 °F 12.4 °F 12.2 °F 63% 30.55 in 10.0 mi NNW 10.4 mph - N/A   Clear
7:53 PM 23.0 °F 11.7 °F 12.2 °F 63% 30.55 in 10.0 mi NNW 11.5 mph - N/A   Clear
8:13 PM 21.2 °F 11.7 °F 12.2 °F 68% 30.56 in 10.0 mi NNW 8.1 mph - N/A   Clear
8:33 PM 21.2 °F 12.6 °F 12.2 °F 68% 30.56 in 10.0 mi NNW 6.9 mph - N/A   Clear
8:53 PM 21.2 °F 11.7 °F 12.2 °F 68% 30.56 in 10.0 mi NNW 8.1 mph - N/A   Clear
9:13 PM 21.2 °F 8.9 °F 12.2 °F 68% 30.56 in 10.0 mi NNW 12.7 mph 18.4 mph N/A   Scattered Clouds
9:33 PM 21.2 °F 8.3 °F 12.2 °F 68% 30.58 in 10.0 mi NNW 13.8 mph 19.6 mph N/A   Clear
9:53 PM 19.4 °F 6.0 °F 12.2 °F 74% 30.58 in 10.0 mi NNW 13.8 mph 25.3 mph N/A   Scattered Clouds
10:13 PM 19.4 °F 3.6 °F 12.2 °F 74% 30.59 in 10.0 mi NNW 19.6 mph 28.8 mph N/A   Mostly Cloudy
10:33 PM 17.6 °F 0.1 °F 6.8 °F 63% 30.60 in 10.0 mi NNW 23.0 mph 32.2 mph N/A   Scattered Clouds
10:53 PM 15.8 °F -1.1 °F 5.0 °F 62% 30.60 in 10.0 mi NNW 19.6 mph 27.6 mph N/A   Scattered Clouds
11:13 PM 14.0 °F -3.9 °F 3.2 °F 62% 30.61 in 10.0 mi NNW 20.7 mph 29.9 mph N/A   Mostly Cloudy
11:33 PM 14.0 °F -3.0 °F 1.4 °F 57% 30.62 in 10.0 mi NNW 18.4 mph 25.3 mph N/A   Scattered Clouds
11:53 PM 12.2 °F -3.1 °F 1.4 °F 62% 30.63 in 10.0 mi NNW 13.8 mph 26.5 mph N/A   Scattered Clouds